Home > Time Zones > World Clock > Weather > India > Dausa > Past weeks

Flag for India Weather past 2 weeks in Dausa, Rajasthan, India

Now
82 °F

Haze.


Feels Like: 86 °F
Forecast: 74 / 94 °F
Wind: 5 mph from West

Location: Jaipur / Sanganer

Current Time: Sep 2, 2015 at 10:25:49 AM

Latest Report: Sep 2, 2015 at 8:00 AM


Visibility: 2 mi

Pressure: 29.71 "Hg

Humidity: 66%

Dew point: 70 °F

Location of DausaLocation

Historic Weather in Dausa — Graph

°F

Dausa temperature yesterday

Maximum temperature yesterday: 95 °F (at 4:00 PM)
Minimum temperature yesterday: 81 °F (at 7:00 AM)
Average temperature yesterday: 88 °F

Past Weeks' High & Low Weather Summary

 TemperatureHumidityPressure
High99 °F (Aug 28, 3:00 PM)94% (Aug 19, 4:30 AM)29.95 "Hg (Aug 19, 4:30 AM)
Low77 °F (Aug 20, 6:00 AM)39% (Aug 29, 5:00 PM)29.62 "Hg (Aug 22, 4:00 PM)
Average87 °F64%29.70 "Hg
* Reported Aug 18 9:00 AM — Sep 2 8:00 AM, Dausa, Weather by CustomWeather, © 2015

Note: Actual official high and low records may vary slightly from our data, if they occured in-between our weather recording intervals... More about our weather records

Advertising

Dausa weather history for previous 24 hours

 ConditionsComfort  
Time TempWeatherWind HumidityBarometerVisibility
8:00 AM
Wed, Sep 2
82 °FHaze.5 mph66%29.71 "Hg2 mi
7:00 AM81 °FHaze.3 mph70%29.71 "Hg2 mi
6:00 AM82 °FPassing clouds.6 mph79%29.68 "Hg2 mi
5:00 AM82 °FHaze.5 mph70%29.68 "Hg2 mi
4:00 AM84 °FPassing clouds.2 mph66%29.68 "Hg2 mi
2:00 AM86 °FHaze.2 mph59%29.68 "Hg2 mi
11:00 PM
Tue, Sep 1
88 °FHaze.2 mph55%29.71 "Hg2 mi
10:00 PM88 °FHaze.3 mph59%29.68 "Hg2 mi
9:00 PM88 °FHaze.16 mph55%29.68 "Hg2 mi
8:00 PM91 °FHaze.3 mph49%29.65 "Hg2 mi
7:00 PM93 °FScattered clouds.3 mph44%29.65 "Hg2 mi
6:00 PM95 °FScattered clouds.7 mph41%29.65 "Hg2 mi
5:00 PM95 °FScattered clouds.7 mph41%29.65 "Hg2 mi
4:00 PM95 °FScattered clouds.7 mph41%29.65 "Hg2 mi
3:00 PM82 °FScattered clouds.6 mph79%29.68 "Hg2 mi
2:00 PM93 °FScattered clouds.6 mph49%29.68 "Hg2 mi
12:00 PM91 °FScattered clouds.7 mph56%29.71 "Hg2 mi
11:30 AM90 °FScattered clouds.7 mph59%29.71 "Hg2 mi
11:00 AM90 °FHaze.7 mph55%29.74 "Hg2 mi
10:30 AM88 °FHaze.7 mph59%29.74 "Hg2 mi
10:00 AM86 °FHaze.6 mph62%29.74 "Hg2 mi
Weather by CustomWeather, © 2015

See weather overviewHow to use our weather pages